{"data":{"norad_id":58665,"intl_designator":"2023-185P","name":"MDQUBESAT-2","alt_names":[],"object_type":"PAYLOAD","status":"ACTIVE","operator":null,"country":"ARGN","launch_date":"2023-12-01","launch_site_code":"AFWTR","launch_vehicle":null,"mission":null,"orbit_class":"UNKNOWN","rcs_meters":null,"size_class":null,"mass_kg":null,"dimensions":null,"purposes":[],"wikipedia_slug":null,"has_3d_model":false,"image_url":null,"decayed_at":null,"tle_current":{"epoch":"2026-06-03T01:54:26.589024Z","epoch_age_seconds":9701590,"freshness":"OLD","line1":"1 58665U 23185P   26154.07947441  .03555560  25061-5  18993-2 0  9993","line2":"2 58665  97.5153 248.4694 0017018 272.7618  87.1722 16.19579607135725","mean_motion":16.19579607,"eccentricity":0.0017018,"inclination_deg":97.5153,"raan_deg":248.4694,"arg_perigee_deg":272.7618,"mean_anomaly_deg":87.1722,"bstar":0.0018993,"rev_number":13572,"period_min":88.911961707604,"perigee_km":209.46363760306,"apogee_km":231.9234171861,"semimajor_km":6598.8305273946,"source":"CELESTRAK","updated_at":"2026-06-08T09:00:22.496044Z"}}}